Date String (YYYY-MM-DD hh:mm:ss) UTC,Instrument flags,absolute air pressure of the measurement (hPa),sample flow rate (lpm),inlet stack bypass flow (lpm),air temperature of the measurement (°C),ambient temperature measured by the external sensor (°C),aerosol sample conditioner tube jacket temperature (°C),OPC LED temperature (°C),internal box temperature (°C),relative humidity of the measurement (%),span deviation,mass concentration of particles derived from Lorenz-Mie calculation of OPC scattering (μg/m³),mass concentration of particles derived from Lorenz-Mie calculation of OPC scattering (μg/m³),mass concentration of particles derived from Lorenz-Mie calculation of OPC scattering (μg/m³)
DateTimeUTC,F1_M11,P_M11,Q1_M11,Q2_M11,T1_M11,T2_M11,T3_M11,T4_M11,T5_M11,U1_M11,ZSPAN_M11,X0_M11,X2_M11,X1_M11
2023-09-27 14:00:00,SystemResetWarning,0833.1,5.00,000.00,029.3,028.0,000.0,037.8,031.0,17.0,0002.6,0018.92,0006.31,0004.92
2023-09-27 14:01:00,SystemResetWarning,0833.2,4.99,000.00,029.4,027.5,000.0,037.7,031.1,17.6,0002.4,0018.75,0006.26,0004.91
2023-09-27 14:02:00,SystemResetWarning,0833.2,5.00,000.00,029.3,025.6,000.0,037.7,030.8,17.9,0002.6,0017.86,0006.22,0004.91
2023-09-27 14:03:00,SystemResetWarning,0833.1,5.01,000.00,029.2,024.6,000.0,037.6,030.6,17.8,0002.7,0017.18,0006.22,0004.90
2023-09-27 14:04:00,SystemResetWarning,0833.2,5.00,000.00,029.1,024.7,000.0,037.6,030.4,17.2,0002.5,0015.79,0006.21,0004.91
2023-09-27 14:05:00,SystemResetWarning,0833.0,5.00,000.00,029.0,025.0,000.0,037.6,030.3,16.9,0002.3,0017.04,0006.19,0004.92
2023-09-27 14:06:00,SystemResetWarning,0833.3,4.99,000.00,028.9,025.4,000.0,037.6,030.2,16.6,0002.3,0017.22,0006.21,0004.95
2023-09-27 14:07:00,SystemResetWarning,0833.3,5.00,000.00,028.8,025.7,000.0,037.5,030.3,16.7,0002.2,0016.70,0006.25,0004.97
2023-09-27 14:08:00,SystemResetWarning,0833.3,5.00,000.00,028.8,026.0,000.0,037.5,030.3,16.8,0001.7,0016.88,0006.28,0004.97
2023-09-27 14:09:00,SystemResetWarning,0833.0,5.01,000.00,028.8,026.3,000.0,037.4,030.3,17.1,0001.6,0017.97,0006.25,0004.97
2023-09-27 14:10:00,SystemResetWarning,0833.1,5.00,000.00,028.8,026.5,000.0,037.4,030.3,17.3,0001.0,0018.66,0006.24,0004.97
2023-09-27 14:11:00,SystemResetWarning,0833.1,5.00,000.00,028.7,026.7,000.0,037.4,030.3,17.4,0001.2,0018.37,0006.30,0004.97
2023-09-27 14:12:00,SystemResetWarning,0833.1,5.00,000.00,028.7,026.8,000.0,037.4,030.3,17.3,0001.3,0018.75,0006.36,0004.98
2023-09-27 14:13:00,SystemResetWarning,0833.4,5.00,000.00,028.7,026.9,000.0,037.3,030.3,17.1,0001.3,0019.58,0006.43,0004.98
2023-09-27 14:14:00,SystemResetWarning,0833.1,5.00,000.00,028.7,027.0,000.0,037.3,030.3,17.4,0001.2,0020.28,0006.51,0004.99
2023-09-27 14:15:00,SystemResetWarning,0833.4,4.99,000.00,028.7,027.1,000.0,037.3,030.4,17.5,0001.1,0020.79,0006.54,0004.98
2023-09-27 14:16:00,SystemResetWarning,0833.4,4.99,000.00,028.7,027.1,000.0,037.3,030.4,17.8,0000.9,0019.81,0006.57,0004.97
2023-09-27 14:17:00,SystemResetWarning,0833.4,5.00,000.00,028.7,027.2,000.0,037.3,030.4,18.0,0000.1,0020.41,0006.66,0004.96
2023-09-27 14:18:00,SystemResetWarning,0833.2,5.00,000.00,028.8,027.2,000.0,037.3,030.4,18.2,0000.4,0019.98,0006.68,0004.95
2023-09-27 14:19:00,SystemResetWarning,0833.5,5.01,000.00,028.8,027.2,000.0,037.3,030.4,18.6,0001.7,0019.50,0006.70,0004.94
2023-09-27 14:20:00,SystemResetWarning,0833.0,5.00,000.00,028.8,027.3,000.0,037.3,030.4,18.2,0002.2,0018.60,0006.74,0004.94
2023-09-27 14:21:00,SystemResetWarning,0833.0,5.00,000.00,028.8,027.3,000.0,037.3,030.5,18.1,0002.3,0018.87,0006.73,0004.94
2023-09-27 14:22:00,SystemResetWarning,0833.0,5.00,000.00,028.8,027.3,000.0,037.3,030.5,18.2,0000.7,0018.87,0006.70,0004.93
2023-09-27 14:23:00,SystemResetWarning,0833.1,4.99,000.00,028.8,027.3,000.0,037.3,030.5,18.3,0000.0,0019.43,0006.72,0004.94
2023-09-27 14:24:00,SystemResetWarning,0833.2,5.00,000.00,028.8,027.4,000.0,037.3,030.5,18.4,0000.0,0019.11,0006.71,0004.95
2023-09-27 14:25:00,SystemResetWarning,0833.0,5.00,000.00,028.8,027.4,000.0,037.3,030.5,18.3,0000.0,0019.04,0006.64,0004.95
2023-09-27 14:26:00,SystemResetWarning,0833.0,5.00,000.00,028.8,027.4,000.0,037.3,030.5,18.1,0000.0,0019.30,0006.64,0004.96
2023-09-27 14:27:00,SystemResetWarning,0833.0,5.00,000.00,028.8,027.4,000.0,037.3,030.5,18.2,0000.0,0018.46,0006.63,0004.96
2023-09-27 14:28:00,SystemResetWarning,0833.2,5.00,000.00,028.9,027.4,000.0,037.3,030.6,18.1,0000.0,0018.13,0006.56,0004.96
2023-09-27 14:29:00,SystemResetWarning,0833.0,5.00,000.00,028.9,027.4,000.0,037.3,030.5,18.2,0000.0,0020.66,0006.49,0004.94
2023-09-27 14:30:00,SystemResetWarning,0833.1,5.00,000.00,028.9,027.5,000.0,037.3,030.6,18.2,0000.0,0021.62,0006.50,0004.94
2023-09-27 14:31:00,SystemResetWarning,0833.0,5.00,000.00,028.9,027.5,000.0,037.3,030.6,18.3,0000.0,0022.66,0006.52,0004.93
2023-09-27 14:32:00,SystemResetWarning,0833.0,5.00,000.00,028.9,027.5,000.0,037.3,030.6,17.7,0000.0,0022.03,0006.53,0004.92
2023-09-27 14:33:00,SystemResetWarning,0833.0,5.00,000.00,028.9,027.5,000.0,037.3,030.6,17.3,0000.0,0021.90,0006.53,0004.93
2023-09-27 14:34:00,SystemResetWarning,0833.0,5.00,000.00,028.9,027.6,000.0,037.3,030.6,17.8,0000.0,0022.16,0006.55,0004.94
2023-09-27 14:35:00,SystemResetWarning,0833.0,5.00,000.00,028.9,027.6,000.0,037.3,030.6,17.8,0000.0,0022.41,0006.53,0004.93
2023-09-27 14:36:00,SystemResetWarning,0833.1,5.00,000.00,028.9,027.6,000.0,037.4,030.7,18.0,0000.0,0021.92,0006.50,0004.93
2023-09-27 14:37:00,SystemResetWarning,0833.0,5.00,000.00,029.0,027.6,000.0,037.4,030.7,17.7,0000.0,0020.97,0006.44,0004.92
2023-09-27 14:38:00,SystemResetWarning,0833.0,5.01,000.00,029.0,027.6,000.0,037.4,030.7,17.6,0000.0,0021.40,0006.46,0004.93
2023-09-27 14:39:00,SystemResetWarning,0833.0,5.00,000.00,029.0,027.7,000.0,037.4,030.7,18.1,0000.0,0020.71,0006.47,0004.95
2023-09-27 14:40:00,SystemResetWarning,0833.0,5.01,000.00,029.0,027.7,000.0,037.4,030.7,18.1,0000.0,0018.17,0006.49,0004.97
2023-09-27 14:41:00,SystemResetWarning,0833.0,5.00,000.00,029.0,027.7,000.0,037.4,030.7,18.0,0000.8,0016.92,0006.45,0004.99
2023-09-27 14:42:00,SystemResetWarning,0833.0,4.99,000.00,029.0,027.7,000.0,037.4,030.7,18.2,0002.6,0016.14,0006.39,0005.00
2023-09-27 14:43:00,SystemResetWarning,0833.1,4.99,000.00,029.0,027.7,000.0,037.4,030.7,18.4,0002.4,0016.03,0006.33,0005.04
2023-09-27 14:44:00,SystemResetWarning,0833.4,5.00,000.00,029.0,027.7,000.0,037.4,030.7,18.6,0000.9,0016.56,0006.34,0005.05
2023-09-27 14:45:00,SystemResetWarning,0833.2,5.01,000.00,029.1,027.7,000.0,037.4,030.7,18.9,0000.0,0016.26,0006.31,0005.05
2023-09-27 14:46:00,SystemResetWarning,0833.1,5.00,000.00,029.1,027.7,000.0,037.5,030.8,18.9,0000.0,0016.03,0006.31,0005.07
2023-09-27 14:47:00,SystemResetWarning,0833.4,4.99,000.00,029.1,027.7,000.0,037.5,030.8,19.0,0000.0,0016.41,0006.37,0005.08
2023-09-27 14:48:00,SystemResetWarning,0833.4,4.99,000.00,029.1,027.7,000.0,037.5,030.8,18.6,0000.0,0016.04,0006.38,0005.10
2023-09-27 14:49:00,SystemResetWarning,0833.4,4.99,000.00,029.1,027.3,000.0,037.5,030.8,19.5,0002.0,0016.06,0006.42,0005.11
2023-09-27 14:50:00,SystemResetWarning,0833.3,5.01,000.00,029.1,025.6,000.0,037.4,030.7,18.9,0002.6,0016.87,0006.43,0005.10
2023-09-27 14:51:00,SystemResetWarning,0833.0,5.00,000.00,029.0,024.8,000.0,037.4,030.5,18.8,0002.1,0017.50,0006.47,0005.09
2023-09-27 14:52:00,SystemResetWarning,0833.0,5.01,000.00,028.9,025.0,000.0,037.3,030.4,18.7,0002.1,0018.00,0006.48,0005.07
2023-09-27 14:53:00,SystemResetWarning,0832.9,4.99,000.00,028.8,025.3,000.0,037.4,030.2,18.6,0000.2,0017.95,0006.52,0005.07
2023-09-27 14:54:00,SystemResetWarning,0832.9,5.00,000.00,028.7,025.6,000.0,037.3,030.2,18.3,0000.0,0018.12,0006.60,0005.06
2023-09-27 14:55:00,SystemResetWarning,0832.9,5.01,000.00,028.7,025.9,000.0,037.3,030.2,17.9,0000.0,0019.18,0006.65,0005.05
2023-09-27 14:56:00,SystemResetWarning,0832.9,5.00,000.00,028.7,026.2,000.0,037.3,030.2,17.1,0000.0,0019.51,0006.70,0005.04
2023-09-27 14:57:00,SystemResetWarning,0832.9,5.00,000.00,028.7,026.4,000.0,037.3,030.3,17.4,0002.3,0019.69,0006.74,0005.03
2023-09-27 14:58:00,SystemResetWarning,0833.0,5.00,000.00,028.7,026.6,000.0,037.3,030.3,17.2,0003.4,0020.72,0006.77,0005.03
2023-09-27 14:59:00,SystemResetWarning,0833.0,5.00,000.00,028.7,026.8,000.0,037.3,030.3,17.5,0000.5,0021.27,0006.87,0005.02
